FENGYUN 1C DEB, 29980

Orbit data source: Space-Track

FENGYUN 1C DEB, 29980 is space debris in SSO originally from a launch on Mon, 10 May 1999 UTC launched from the Taiyaun Space Center, China (TSC). Fengyun 1C debris stems from the Chinese weather satellite Fengyun-1C, which was intentionally destroyed by a Chinese anti-satellite missile in 2007. This event dramatically increased the amount of space debris, with thousands of trackable fragments posing hazards to satellites and human spaceflight. The Fengyun 1C debris cloud has become a focal point in discussions about space sustainability and the need for international regulations to prevent the creation of new debris.

Loading next visibility...
Identifier
29980, 1999-025LE
Orbit
SSO
Country
Flag of CNCN / PRC
Related business
Manufacturer
Unknown
Mission
Spacecraft
Bus & Motor
Unknown
Mass
Unknown
Launch date (UTC)
1999-05-10 (27 years ago)
Launch vehicle
Unknown
Launch site
Taiyaun Space Center, China (TSC)
Object type
Payload
Rocket body
Debris
Shape & HBR
Unknown shape, 0.1 m
Radar Cross Section
Medium (>0.1 m² and <1 m²)

Expand to show TLE details & history
Last TLE update: 13 hours ago

TLE from 13 hours ago
0 FENGYUN 1C DEB
1 29980U 99025LE  26255.27033657  .00000219  00000-0  15176-3 0  9991
2 29980  98.5839  54.9098 0087421 193.5474 288.9505 14.06464475  8345
Epoch: 2026-09-12T06:29Z
TLE epoch observation values (Epoch: 2026-09-12T06:29:17.079Z)
Latitude
57.52111°
Longitude
159.9506°
Altitude
861.041 km
Speed
7.438 km/s
True Right ascension
16h 34m 12s
True Declination
57° 22' 02"
Sunlit
Object was in daylight at epoch
Visualization orbit readout
Latitude
Unknown
Longitude
Unknown
Altitude
Unknown
Speed
Unknown
Apparent Right ascension
Unknown
Apparent Declination
Unknown
Sunlit
N/A
Visualization observer readout
Local Sidereal Time
11:41:53
Azimuth
Unknown
Elevation
Unknown
Doppler factor
Unknown
Orbital elements
Apogee altitude
932.018 km
Perigee altitude
805.314 km
Semi-major axis
7,246.803 km
Eccentricity
0.00874
Inclination
98.5839°
RAAN
54.9098°
Arg. of periapsis
193.5474°
True anomaly
287.9997°
Mean anomaly
288.9505°
Eccentric anomaly
288.47543°
Mean motion
3.51822 °/min
Orbital period
102.32 mins
BSTAR
0.00015176
Loading maneuver chart data...
Computing Atmospheric mass density...

Documentation

Showing up to 5 results
|